User: anonymous   Login
Location: Unspecified
(0.0000°N, 0.0000°E)
Time: 10:25:29
(UTC+00:00)
Language:

COSMOS 2452 - Orbit

View from above orbital plane
View from above orbital plane
View from above satellite
View from above satellite

Ground track
Ground track

The orbit data is extracted from the following two-line orbital elements,

1 35499U 09036B   17080.90240137 +.00000010 +00000-0 +00000-0 0  9991
2 35499 082.4951 020.9062 0015081 303.8922 056.0732 12.42901703349707
Epoch (UTC): 21 March 2017 21:39:27
Eccentricity: 0.0015081
inclination: 82.4951°
perigee height: 1482 km
apogee height: 1506 km
right ascension of ascending node: 20.9062°
argument of perigee: 303.8922°
revolutions per day: 12.42901703
mean anomaly at epoch: 56.0732°
orbit number at epoch: 34970

The dashed part of the orbit path shows where the satellite is in the earth's shadow,  

DLR